Powrót do katalogu

FENGYUN 1C DEB

AktywnySSO
NORAD 46440·DEBRIS·🇨🇳 China

Wystrzelony May 10, 1999 z Taiyuan Satellite Launch Center

Loading…

Następne Przeloty (najbliższe 24 godziny)

TLE

ŚwieżeSource: Space-Track

Epoka: Sep 14, 2026, 22:00 UTC

1 46440U 99025EYV 26257.91730505  .00000513  00000-0  22080-3 0  9999
2 46440  98.5695 281.9347 0175727  55.8823  62.6622 14.20697021662905

Śledź FENGYUN 1C DEB w czasie rzeczywistym z AllMySat

Download on the App Store